Location: Cerezo de Arriba
(41.2389°N, 3.5585°W)
Time: 03:27:52
(UTC+00:00)

Terra - Pass Details

Date: 19 May 2025
Orbit: 690 x 691 km, 98.0° (Epoch: 23 June)

Event Time Altitude Azimuth Distance (km) Brightness Sun altitude
Exits shadow 22:28:50 - 236° (WSW) 2,212 4.3 -24.4°
Reaches altitude 10° 22:29:12 10° 240° (WSW) 2,139 4.3 -24.4°
Maximum altitude 22:31:30 14° 270° (W) 1,914 4.3 -24.6°
Drops below altitude 10° 22:33:48 10° 299° (WNW) 2,147 5.0 -24.8°
Sets 22:37:15 0° 326° (NW) 3,070 6.5 -25.1°
